TimeEST,TemperatureF,Dew PointF,Humidity,Sea Level PressureIn,VisibilityMPH,Wind Direction,Wind SpeedMPH,Gust SpeedMPH,PrecipitationIn,Events,Conditions,WindDirDegrees,DateUTC
12:15 AM,35.6,30.2,81,29.99,10.0,North,10.4,17.3,N/A,,Scattered Clouds,350,2012-11-05 05:15:00
12:35 AM,35.6,30.2,81,29.99,10.0,NNW,11.5,-,N/A,,Clear,340,2012-11-05 05:35:00
12:55 AM,35.6,30.2,81,29.99,10.0,NNW,9.2,-,N/A,,Clear,340,2012-11-05 05:55:00
1:15 AM,35.6,28.4,75,29.99,10.0,NNW,11.5,-,N/A,,Clear,340,2012-11-05 06:15:00
1:35 AM,35.6,28.4,75,29.99,10.0,NNW,9.2,-,N/A,,Clear,330,2012-11-05 06:35:00
1:55 AM,35.6,28.4,75,29.99,10.0,NW,9.2,24.2,N/A,,Clear,320,2012-11-05 06:55:00
2:15 AM,35.6,28.4,75,30.00,10.0,NW,3.5,-,N/A,,Clear,320,2012-11-05 07:15:00
2:35 AM,35.6,28.4,75,30.00,10.0,WNW,5.8,-,N/A,,Clear,290,2012-11-05 07:35:00
2:55 AM,35.6,26.6,70,30.00,10.0,West,8.1,18.4,N/A,,Clear,280,2012-11-05 07:55:00
3:15 AM,35.6,26.6,70,30.00,10.0,West,3.5,18.4,N/A,,Clear,270,2012-11-05 08:15:00
3:35 AM,35.6,26.6,70,30.00,10.0,Calm,Calm,-,N/A,,Clear,0,2012-11-05 08:35:00
3:55 AM,35.6,26.6,70,30.00,10.0,WNW,9.2,20.7,N/A,,Clear,300,2012-11-05 08:55:00
4:15 AM,33.8,26.6,75,29.99,10.0,NW,13.8,24.2,N/A,,Clear,310,2012-11-05 09:15:00
4:35 AM,33.8,26.6,75,29.99,10.0,NW,17.3,26.5,N/A,,Clear,310,2012-11-05 09:35:00
4:55 AM,33.8,26.6,75,29.99,10.0,NW,18.4,25.3,N/A,,Clear,310,2012-11-05 09:55:00
5:15 AM,33.8,26.6,75,30.00,10.0,NW,15.0,24.2,N/A,,Clear,310,2012-11-05 10:15:00
5:35 AM,33.8,26.6,75,30.00,10.0,NW,12.7,21.9,N/A,,Clear,310,2012-11-05 10:35:00
5:55 AM,33.8,26.6,75,30.00,10.0,NW,5.8,-,N/A,,Clear,320,2012-11-05 10:55:00
6:15 AM,33.8,26.6,75,30.01,10.0,NW,6.9,-,N/A,,Clear,320,2012-11-05 11:15:00
6:55 AM,33.8,26.6,75,30.01,10.0,NW,9.2,-,N/A,,Clear,320,2012-11-05 11:55:00
7:15 AM,33.8,26.6,75,30.01,10.0,NW,9.2,-,N/A,,Clear,320,2012-11-05 12:15:00
7:35 AM,33.8,26.6,75,30.02,10.0,NW,9.2,18.4,N/A,,Clear,310,2012-11-05 12:35:00
7:55 AM,35.6,26.6,70,30.02,10.0,NW,9.2,18.4,N/A,,Clear,310,2012-11-05 12:55:00
8:15 AM,35.6,26.6,70,30.02,10.0,Calm,Calm,-,N/A,,Clear,0,2012-11-05 13:15:00
8:35 AM,35.6,26.6,70,30.02,10.0,NW,5.8,-,N/A,,Clear,310,2012-11-05 13:35:00
8:55 AM,37.4,24.8,60,30.03,10.0,Calm,Calm,-,N/A,,Clear,0,2012-11-05 13:55:00
9:15 AM,37.4,26.6,65,30.04,10.0,WSW,4.6,-,N/A,,Clear,250,2012-11-05 14:15:00
9:35 AM,37.4,26.6,65,30.04,10.0,WNW,3.5,-,N/A,,Scattered Clouds,290,2012-11-05 14:35:00
9:55 AM,37.4,26.6,65,30.04,10.0,NW,3.5,-,N/A,,Scattered Clouds,320,2012-11-05 14:55:00
10:15 AM,39.2,24.8,56,30.04,10.0,NNW,5.8,-,N/A,,Clear,330,2012-11-05 15:15:00
10:35 AM,41.0,26.6,57,30.03,10.0,North,3.5,-,N/A,,Clear,350,2012-11-05 15:35:00
10:55 AM,41.0,24.8,53,30.04,10.0,NNE,5.8,-,N/A,,Clear,20,2012-11-05 15:55:00
11:15 AM,42.8,23.0,46,30.04,10.0,North,4.6,-,N/A,,Clear,10,2012-11-05 16:15:00
11:35 AM,42.8,23.0,46,30.04,10.0,NNW,5.8,-,N/A,,Clear,340,2012-11-05 16:35:00
11:55 AM,44.6,24.8,46,30.03,10.0,NE,4.6,-,N/A,,Clear,40,2012-11-05 16:55:00
12:15 PM,44.6,21.2,39,30.03,10.0,Calm,Calm,-,N/A,,Clear,0,2012-11-05 17:15:00
12:35 PM,44.6,23.0,43,30.02,10.0,ENE,3.5,-,N/A,,Clear,60,2012-11-05 17:35:00
12:55 PM,46.4,21.2,37,30.01,10.0,North,8.1,-,N/A,,Clear,360,2012-11-05 17:55:00
1:15 PM,44.6,23.0,43,30.01,10.0,NW,3.5,-,N/A,,Clear,320,2012-11-05 18:15:00
1:35 PM,46.4,23.0,40,30.00,10.0,NNE,4.6,-,N/A,,Clear,30,2012-11-05 18:35:00
1:55 PM,46.4,23.0,40,30.00,10.0,Calm,Calm,-,N/A,,Clear,0,2012-11-05 18:55:00
2:15 PM,46.4,23.0,40,29.99,10.0,Calm,Calm,-,N/A,,Clear,0,2012-11-05 19:15:00
2:35 PM,46.4,23.0,40,29.99,10.0,NNW,4.6,-,N/A,,Clear,330,2012-11-05 19:35:00
2:55 PM,48.2,23.0,37,29.99,10.0,WNW,5.8,-,N/A,,Clear,300,2012-11-05 19:55:00
3:15 PM,46.4,23.0,40,29.99,10.0,Calm,Calm,-,N/A,,Clear,0,2012-11-05 20:15:00
3:35 PM,46.4,23.0,40,29.99,10.0,East,6.9,-,N/A,,Clear,90,2012-11-05 20:35:00
3:55 PM,48.2,21.2,34,29.99,10.0,NE,3.5,-,N/A,,Clear,50,2012-11-05 20:55:00
4:15 PM,46.4,21.2,37,29.99,7.0,ENE,4.6,-,N/A,,Clear,70,2012-11-05 21:15:00
4:35 PM,46.4,23.0,40,29.99,7.0,East,5.8,-,N/A,,Clear,90,2012-11-05 21:35:00
4:55 PM,44.6,23.0,43,29.99,10.0,East,5.8,-,N/A,,Clear,100,2012-11-05 21:55:00
5:15 PM,44.6,21.2,39,29.99,7.0,Calm,Calm,-,N/A,,Clear,0,2012-11-05 22:15:00
5:35 PM,44.6,21.2,39,30.00,10.0,Calm,Calm,-,N/A,,Clear,0,2012-11-05 22:35:00
5:55 PM,42.8,23.0,46,30.01,10.0,Calm,Calm,-,N/A,,Clear,0,2012-11-05 22:55:00
6:15 PM,42.8,24.8,49,30.02,10.0,Calm,Calm,-,N/A,,Clear,0,2012-11-05 23:15:00
6:35 PM,42.8,24.8,49,30.02,10.0,Calm,Calm,-,N/A,,Clear,0,2012-11-05 23:35:00
6:55 PM,41.0,24.8,53,30.03,10.0,Calm,Calm,-,N/A,,Clear,0,2012-11-05 23:55:00
7:15 PM,42.8,24.8,49,30.03,10.0,Calm,Calm,-,N/A,,Clear,0,2012-11-06 00:15:00
8:15 PM,41.0,24.8,53,30.04,10.0,Calm,Calm,-,N/A,,Clear,0,2012-11-06 01:15:00
8:35 PM,39.2,26.6,61,30.04,10.0,Calm,Calm,-,N/A,,Clear,0,2012-11-06 01:35:00
8:55 PM,39.2,24.8,56,30.04,10.0,Calm,Calm,-,N/A,,Clear,0,2012-11-06 01:55:00
9:15 PM,39.2,24.8,56,30.04,10.0,Calm,Calm,-,N/A,,Clear,0,2012-11-06 02:15:00
9:35 PM,37.4,26.6,65,30.05,10.0,Calm,Calm,-,N/A,,Clear,0,2012-11-06 02:35:00
9:55 PM,37.4,26.6,65,30.04,10.0,Calm,Calm,-,N/A,,Clear,0,2012-11-06 02:55:00
10:15 PM,37.4,26.6,65,30.04,10.0,Calm,Calm,-,N/A,,Clear,0,2012-11-06 03:15:00
10:35 PM,37.4,26.6,65,30.04,10.0,Calm,Calm,-,N/A,,Clear,0,2012-11-06 03:35:00
11:15 PM,33.8,26.6,75,30.04,10.0,Calm,Calm,-,N/A,,Clear,0,2012-11-06 04:15:00
11:35 PM,32.0,26.6,80,30.05,10.0,Calm,Calm,-,N/A,,Clear,0,2012-11-06 04:35:00
11:55 PM,33.8,26.6,75,30.05,10.0,South,3.5,-,N/A,,Clear,190,2012-11-06 04:55:00